Dewpoint
74 73 72 73 74 73 73 71 67 67 67 69 70 69 71 71 72 69 70 71 71 70 70 70 71 72 72 72 72 73 73 73 73 73 73 74 74 75
72 74 74 72 73 73 73 72 70 69 67 71 69 69 69 68 71 67 68 71 70 70 69 69 70 70 71 71 70 70 70 71 71 72 72 72 72 72
74 73 73 73 73 72 74 73 71 70 68 70 72 72 70 69 69 69 68 69 69 69 69 69 69 69 69 69 69 69 70 70 70 70 71 71 71 71
73 73 73 73 73 72 73 73 71 72 71 69 71 70 70 71 73 72 68 67 68 68 67 67 67 67 67 67 68 68 68 68 68 69 69 70 70 70
73 73 73 73 72 73 73 73 71 72 71 70 71 69 69 71 72 74 72 70 69 69 66 66 66 66 66 66 66 66 65 65 65 66 66 67 68 68
73 73 73 72 72 72 72 71 68 67 69 70 70 68 70 72 73 72 71 73 72 71 68 67 67 67 67 66 66 66 64 63 63 63 63 63 64 64
72 72 73 71 70 69 70 70 70 67 68 69 70 69 69 70 71 72 72 71 72 73 72 71 71 70 69 67 68 68 65 64 64 63 61 60 60 60
69 69 69 70 69 68 68 68 68 68 69 69 69 68 69 70 71 71 71 70 69 74 72 72 73 71 71 70 68 67 66 64 62 61 61 61 62 61
70 68 67 67 68 68 67 67 68 68 68 69 70 70 70 70 71 71 72 71 70 73 72 70 71 70 66 63 63 63 62 61 61 60 60 60 60 60
70 70 69 68 68 68 67 67 68 69 67 69 70 70 70 69 73 72 70 70 70 71 73 68 71 70 67 63 62 62 61 60 59 59 58 59 58 58
73 71 70 69 66 66 68 67 67 69 63 64 67 66 67 67 67 72 70 69 68 69 72 70 71 70 66 64 61 61 59 58 58 58 58 57 57 56
74 73 67 69 63 63 68 68 67 66 66 62 65 64 64 67 66 71 72 69 69 68 71 69 69 69 67 65 61 59 58 57 56 56 56 56 55 61
71 71 70 62 60 60 62 69 67 67 65 65 64 65 68 67 67 67 69 69 67 66 68 69 65 65 64 63 63 61 60 57 57 55 53 53 52 53
70 71 70 59 57 57 59 59 58 59 64 63 62 62 64 66 66 66 67 69 69 68 69 69 65 64 64 63 63 63 63 58 60 58 58 53 50 50
65 63 61 56 55 56 58 58 57 60 60 58 58 60 64 64 66 68 70 70 68 67 67 68 67 66 64 61 61 63 60 60 61 59 56 54 54 56
60 60 60 60 59 60 57 57 59 60 59 57 58 62 65 67 65 66 65 65 65 65 65 66 66 66 63 63 61 61 61 59 60 59 58 58 59 58
63 61 59 60 60 61 61 60 59 59 58 60 62 62 64 66 65 66 65 64 61 62 62 64 65 66 65 64 59 59 61 60 57 58 60 58 56 56
59 63 62 61 61 62 62 61 61 59 58 59 60 62 62 63 63 64 63 62 59 59 60 62 62 62 61 61 62 59 59 59 60 60 58 58 55 56
60 60 60 63 62 60 60 60 58 60 61 61 61 62 63 61 59 60 61 60 59 60 58 62 60 59 56 54 58 58 58 59 61 59 58 56 55 55
60 59 60 62 63 62 62 60 58 61 60 60 61 62 60 60 59 56 57 56 56 56 55 58 60 58 55 54 55 57 53 57 58 58 57 58 55 56
57 59 60 60 61 62 62 60 58 58 59 59 59 58 59 58 58 56 56 52 53 56 54 54 57 57 61 59 55 55 58 52 58 58 58 55 53 53
60 60 58 57 58 58 60 57 56 55 58 57 56 54 54 54 54 54 53 53 51 52 53 55 58 58 58 55 52 53 55 54 52 53 54 56 54 52
58 58 58 57 57 55 55 55 54 54 55 57 57 59 56 53 55 54 52 52 52 52 52 52 55 57 54 53 51 51 54 54 53 52 51 52 54 52
Lifted_Index
-4 -4 -3 -3 -3 -3 -3 -2 -2 -2 -3 -3 -3 -3 -3 -3 -3 -3 -3 -3 -2 -2 -2 -2 -2 -3 -3 -3 -2 -2 -2 -2 -3 -3 -3 -3 -3 -3
-3 -4 -3 -3 -3 -3 -3 -2 -2 -2 -2 -3 -3 -3 -3 -3 -3 -3 -3 -2 -2 -1 -1 -1 -2 -2 -2 -2 -1 -1 -1 -2 -2 -2 -2 -3 -3 -3
-3 -3 -3 -3 -3 -3 -3 -3 -2 -2 -2 -2 -3 -3 -3 -3 -3 -3 -3 -2 -2 -2 -2 -1 -1 -1 -0 -0 -0 -1 -1 -1 -2 -2 -2 -2 -2 -2
-3 -3 -3 -3 -3 -3 -3 -3 -2 -2 -2 -2 -3 -3 -3 -3 -4 -4 -3 -3 -3 -2 -2 -2 -1 -0 0 0 -0 -1 -1 -2 -2 -2 -2 -2 -2 -2
-3 -3 -3 -3 -3 -3 -3 -3 -2 -2 -2 -3 -3 -2 -2 -3 -4 -5 -4 -4 -4 -3 -3 -3 -2 -1 -0 -0 -1 -1 -2 -2 -2 -2 -2 -2 -2 -2
-3 -3 -3 -3 -3 -3 -2 -2 -2 -1 -1 -2 -3 -2 -2 -3 -4 -5 -5 -4 -4 -4 -4 -3 -3 -2 -2 -2 -2 -2 -2 -2 -2 -2 -2 -2 -2 -1
-2 -2 -2 -2 -2 -2 -2 -1 -1 -0 -1 -2 -2 -3 -3 -3 -4 -5 -5 -4 -4 -5 -4 -4 -4 -3 -3 -3 -3 -3 -2 -2 -2 -2 -2 -2 -1 -1
-1 -1 -0 -0 -0 -1 -1 -0 0 -0 -0 -1 -2 -3 -3 -3 -4 -4 -4 -4 -5 -5 -5 -4 -4 -4 -4 -4 -3 -3 -2 -2 -2 -2 -2 -1 -0 -0
-1 -0 0 1 1 0 0 1 1 0 -0 -1 -2 -2 -3 -3 -3 -4 -4 -4 -4 -4 -4 -4 -4 -4 -4 -4 -3 -2 -2 -2 -2 -2 -1 -0 1 1
-2 -1 -0 1 1 1 1 1 1 0 0 -0 -1 -2 -2 -3 -3 -4 -4 -4 -4 -4 -4 -4 -4 -4 -3 -3 -3 -2 -2 -1 -1 -0 0 1 2 3
-3 -2 -1 -0 0 1 1 1 1 0 0 0 0 -0 -1 -2 -3 -3 -3 -3 -3 -3 -4 -4 -4 -3 -3 -3 -3 -2 -1 0 1 2 2 2 3 4
-4 -3 -2 -1 -1 0 0 0 -0 0 0 1 1 1 0 -1 -2 -2 -3 -3 -2 -3 -3 -3 -3 -3 -3 -2 -2 -1 -0 1 3 4 5 5 5 5
-3 -3 -3 -2 -1 -0 0 -0 -0 1 1 2 2 2 1 0 -1 -1 -2 -2 -2 -2 -2 -2 -2 -2 -1 -1 -1 -0 1 2 3 5 6 7 7 7
-2 -2 -2 -2 -1 -0 0 1 1 2 3 3 3 2 1 0 -0 -0 -0 -1 -1 -0 -1 -1 -0 0 0 1 1 1 1 2 3 5 7 9 9 9
0 -0 -1 -1 -1 0 1 1 2 3 4 5 4 3 2 0 -0 -0 -0 -0 0 1 1 1 1 1 1 1 2 2 2 3 3 4 6 8 8 8
1 1 1 0 0 1 1 1 2 3 5 5 5 3 2 0 -0 -0 0 1 1 1 2 1 1 1 1 1 2 2 2 3 3 4 5 6 6 6
1 2 2 2 1 1 1 2 2 4 5 5 4 3 2 1 0 1 1 2 2 2 2 2 1 1 1 2 3 3 3 3 4 4 5 5 6 6
1 1 2 2 1 1 1 2 3 4 5 5 4 3 2 2 2 2 2 3 3 4 3 2 2 2 2 3 3 4 4 4 4 5 5 5 6 6
1 1 1 1 1 1 2 2 3 4 5 5 4 3 3 3 3 3 3 4 4 4 4 3 3 3 3 4 4 5 5 5 5 5 5 6 6 6
0 1 1 1 1 2 2 3 3 4 4 5 4 4 3 3 4 4 4 4 4 5 4 4 4 4 4 4 5 5 6 5 5 5 5 5 6 6
0 0 1 2 2 2 3 3 4 4 4 5 5 5 4 4 4 4 5 5 5 5 5 5 5 4 4 4 5 5 5 5 5 4 4 4 5 5
1 1 1 2 3 3 4 4 5 5 5 5 5 5 4 4 4 4 4 4 4 5 6 6 5 5 4 4 5 4 4 5 5 4 4 4 4 4
1 1 1 2 3 4 5 5 5 6 6 5 5 4 4 3 3 4 4 4 4 5 5 6 5 4 4 4 4 4 4 4 4 5 5 5 4 4